Location: Aalen
(48.8330°N, 10.1000°E)
Time: 20:40:41
(UTC+02:00)

CAS-6 - Pass Details

Date: 31 March 2023
Orbit: 610 x 632 km, 97.9° (Epoch: 04 June)

Event Time Altitude Azimuth Distance (km) Brightness Sun altitude
Exits shadow 00:38:22 13° 311° (NW) 1,797 ? -36.3°
Drops below altitude 10° 00:39:04 10° 318° (NW) 2,001 ? -36.3°
Sets 00:41:45 0° 334° (NNW) 2,918 ? -36.4°
